EHI
0 0 0 0 0 0 0 0 0 0 0 0 0 1 2 1 0 0 0 0 0 0 0 0 0 0 0 0 0 0 0 0 0 0 0 0 0 0 0 0 0 0 0 0
0 0 0 0 0 0 0 0 0 0 0 0 0 1 1 1 0 0 0 0 0 0 0 0 0 0 0 0 0 0 0 0 0 0 0 0 0 0 0 0 0 0 0 0
0 0 0 0 0 0 0 0 0 0 1 1 1 0 0 0 0 0 0 0 0 0 0 0 0 0 0 0 0 0 0 0 0 0 0 0 0 0 0 0 0 0 0 0
0 0 0 0 0 0 0 0 0 1 1 1 1 0 0 0 0 0 0 0 0 0 0 0 0 0 0 0 0 0 0 0 0 0 0 0 0 0 0 0 0 0 0 0
0 0 0 0 0 0 0 0 0 0 0 0 0 0 1 0 0 0 0 0 0 0 0 0 0 0 0 0 0 0 0 0 0 0 0 0 0 0 0 0 0 0 0 0
0 0 0 0 0 0 0 0 0 0 0 0 0 0 0 0 0 0 0 0 0 0 0 0 0 0 0 0 0 0 0 0 0 0 0 0 0 0 0 0 0 0 0 0
0 0 0 0 0 0 0 0 0 0 0 0 0 0 0 0 0 0 0 0 0 0 0 0 0 0 0 0 0 0 0 0 0 0 0 0 0 0 0 0 0 0 0 0
0 0 0 0 0 0 0 0 0 0 0 0 0 0 0 0 0 0 0 0 0 0 0 0 0 0 0 0 0 0 0 0 0 0 0 0 0 0 0 0 0 0 0 0
0 0 0 0 0 0 0 0 0 0 0 0 0 0 0 0 0 0 0 0 0 0 0 0 0 0 0 0 0 0 0 0 0 0 0 0 0 0 0 0 0 0 0 0
0 0 0 0 0 0 0 0 0 0 0 0 0 0 0 0 0 0 0 0 0 0 0 0 0 0 0 0 0 0 0 0 0 0 0 0 0 0 0 0 0 0 0 0
0 0 0 0 0 0 0 0 0 0 0 0 0 0 0 0 0 0 0 0 0 0 0 0 0 0 0 0 0 0 0 0 0 0 0 0 0 0 0 0 0 0 0 0
0 0 0 0 0 0 0 0 0 0 0 0 0 0 0 0 0 0 0 0 0 0 0 0 0 0 0 0 0 0 0 0 0 0 0 0 0 0 0 0 0 0 0 0
0 0 0 0 0 0 0 0 0 0 0 0 0 0 0 0 0 0 0 0 0 0 0 0 0 0 0 0 0 0 0 0 0 0 0 0 0 0 0 0 0 0 0 0
0 0 0 0 0 0 0 0 0 0 0 0 0 0 0 0 0 0 0 0 0 0 0 0 0 0 0 0 0 0 0 0 0 0 0 0 0 0 0 0 0 0 0 0
0 0 0 0 0 0 0 0 0 0 0 0 0 0 0 0 0 0 0 0 0 0 0 0 0 0 0 0 0 0 0 0 0 0 0 0 0 0 0 0 0 0 0 0
0 0 0 0 0 0 0 0 0 0 0 0 0 0 0 0 0 0 0 0 0 0 0 0 0 0 0 0 0 0 0 0 0 0 0 0 0 0 0 0 0 0 0 0
0 0 0 0 0 0 0 0 0 0 0 0 0 0 0 0 0 0 0 0 0 0 0 0 0 0 0 0 0 0 0 0 0 0 0 0 0 0 0 0 0 0 0 0
0 0 0 0 0 0 0 0 0 0 0 0 0 0 0 0 0 0 0 0 0 0 0 0 0 0 0 0 0 0 0 0 0 0 0 0 0 0 0 0 0 0 0 0
0 0 0 0 0 0 0 0 0 0 0 0 0 0 0 0 0 0 0 0 0 0 0 0 0 0 0 0 0 0 0 0 0 0 0 0 0 0 0 0 0 0 0 0
0 0 0 0 0 0 0 0 0 0 0 0 0 0 0 0 0 0 0 0 0 0 0 0 0 0 0 0 0 0 0 0 0 0 0 0 0 0 0 0 0 0 0 0
0 0 0 0 0 0 0 0 0 0 0 0 0 0 0 0 0 0 0 0 0 0 0 0 0 0 0 0 0 0 0 0 0 0 0 0 0 0 0 0 0 0 0 0
0 0 0 0 0 0 0 0 0 0 0 0 0 0 0 0 0 0 0 0 0 0 0 0 0 0 0 0 0 0 0 0 0 0 0 0 0 0 0 0 0 0 0 0
0 0 0 0 0 0 0 0 0 0 0 0 0 0 0 0 0 0 0 0 0 0 0 0 0 0 0 0 0 0 0 0 0 0 0 0 0 0 0 0 0 0 0 0
0 0 0 0 0 0 0 0 0 0 0 0 0 0 0 0 0 0 0 0 0 0 0 0 0 0 0 0 0 0 0 0 0 0 0 0 0 0 0 0 0 0 0 0
1 0 0 0 0 0 0 0 0 0 0 0 0 0 0 0 0 0 0 0 0 0 0 0 0 0 0 0 0 0 0 0 0 0 0 0 0 0 0 0 0 0 0 0
1 0 0 0 0 0 0 0 0 0 0 0 0 0 0 0 0 0 0 0 0 0 0 0 0 0 0 0 0 0 0 0 0 0 0 0 0 0 0 0 0 0 0 0
1 0 0 0 0 0 0 0 0 0 0 0 0 0 0 0 0 0 0 0 0 0 0 0 0 0 0 0 0 0 0 0 0 0 0 0 0 0 0 0 0 0 0 0
Wind_Speed
7 7 7 7 7 7 8 8 8 4 1 6 8 9 10 10 11 11 10 10 10 9 9 10 10 10 10 10 10 11 11 12 11 10 10 9 10 9 9 8 8 8 8 7
7 6 7 8 7 6 5 5 4 2 1 8 10 10 10 11 11 11 11 11 10 10 10 10 10 10 11 10 10 10 11 11 10 10 9 9 9 8 8 8 7 7 8 8
7 4 7 6 3 4 3 2 3 3 4 12 11 10 10 11 11 12 12 12 11 10 10 10 9 10 10 10 9 9 10 10 9 9 9 8 8 8 8 7 7 7 7 8
5 5 6 3 3 0 1 1 1 4 9 10 10 9 8 9 11 12 13 12 11 10 10 9 9 9 10 9 9 9 9 8 8 8 8 7 7 7 6 6 6 6 6 7
5 6 3 5 4 3 2 1 3 8 11 12 13 11 7 7 10 11 12 11 10 10 10 10 10 9 9 9 9 9 8 8 7 7 7 7 7 6 6 5 6 5 6 6
6 7 4 4 5 2 3 3 7 11 14 14 12 7 7 10 12 12 12 11 11 10 11 10 9 9 9 8 8 8 8 7 7 7 7 7 7 6 5 4 5 5 6 5
7 6 0 6 4 5 5 5 11 12 13 12 6 6 13 14 13 13 13 12 12 11 10 9 9 8 8 8 8 7 7 7 7 6 6 6 6 5 4 4 4 4 5 5
5 5 2 5 4 1 5 8 11 12 12 10 12 16 16 15 14 14 14 13 12 10 10 9 8 8 8 8 7 6 6 6 6 5 4 5 5 4 3 3 4 4 4 3
2 4 6 3 4 4 5 10 11 12 13 14 15 16 16 15 14 14 14 12 10 11 10 9 8 8 9 8 6 5 5 6 6 6 4 4 3 3 3 2 2 3 3 3
3 5 5 5 6 6 8 11 12 13 14 16 17 17 16 15 14 13 13 12 11 11 11 9 9 8 8 7 6 5 5 5 5 4 4 4 2 3 3 3 3 2 3 3
4 7 8 6 7 10 12 13 14 14 14 16 18 17 16 15 14 13 12 11 10 10 10 10 9 8 8 6 5 5 5 4 3 4 4 4 5 5 5 7 7 6 4 3
2 9 7 10 10 13 14 15 15 15 15 16 16 17 16 14 13 13 13 11 10 10 10 10 9 8 7 5 4 3 3 3 3 3 3 3 4 6 6 5 4 4 5 6
7 10 11 14 14 14 14 16 15 16 16 16 16 16 16 14 13 13 13 12 11 11 10 9 9 8 7 5 4 3 3 2 2 2 2 2 2 3 5 5 3 2 1 1
15 16 16 15 15 14 16 17 16 16 16 15 15 15 15 14 14 13 13 12 11 11 10 9 8 7 6 5 4 3 3 3 1 2 2 2 2 1 2 3 4 5 6 3
12 11 15 17 17 17 17 17 17 16 16 15 15 15 15 15 14 13 12 12 11 10 9 9 8 7 6 5 4 3 2 2 1 1 1 2 2 2 2 2 2 2 5 7
14 17 19 19 19 18 18 18 17 17 16 16 15 15 15 14 14 13 12 11 10 9 8 7 7 7 6 5 4 3 2 3 1 1 2 2 2 2 2 2 2 2 2 2
20 20 20 20 19 19 18 17 17 17 17 16 16 16 15 15 14 12 11 10 9 8 7 7 7 6 6 5 4 3 3 5 5 3 1 2 2 2 2 2 2 2 3 5
17 19 20 20 19 19 18 17 17 17 17 17 17 16 15 14 14 13 11 11 10 8 7 7 6 5 5 5 2 1 2 2 3 1 2 2 1 2 2 2 2 2 2 5
17 18 19 19 19 18 17 17 17 17 17 17 16 15 14 13 13 12 11 11 10 9 8 7 4 5 5 4 2 3 2 2 2 2 2 3 3 2 2 2 2 1 1 1
18 19 20 19 19 18 17 17 17 16 16 16 16 15 14 13 12 12 11 9 7 6 8 7 7 6 5 5 5 3 2 2 2 2 2 3 3 2 2 2 1 1 1 0
20 20 20 19 19 18 18 18 17 17 16 16 16 15 14 13 12 11 10 9 8 7 8 7 6 5 5 4 6 4 2 2 2 2 2 2 3 2 2 2 2 1 1 1
20 20 20 19 18 17 16 16 16 17 16 15 15 14 14 13 12 10 9 6 9 7 7 8 7 4 3 3 6 4 3 2 2 2 2 2 2 3 2 2 2 2 2 1
18 19 19 19 18 18 17 16 17 16 16 15 15 14 13 11 10 9 9 7 8 9 8 5 7 8 4 7 5 3 3 3 2 2 2 3 3 3 3 3 3 2 2 2
18 18 18 18 18 18 17 17 16 14 15 14 13 13 12 10 8 7 7 9 8 9 7 7 10 8 8 7 5 4 4 4 3 3 3 3 3 3 3 3 3 3 3 3
18 18 19 19 17 15 16 16 16 15 15 12 13 14 11 9 8 8 8 11 11 10 8 9 10 9 9 7 5 5 4 3 2 2 3 3 3 4 4 4 4 4 4 4
17 15 15 15 13 13 13 13 13 12 12 12 11 11 10 9 9 9 8 10 13 10 8 8 10 10 9 7 6 5 4 4 5 6 5 4 5 4 4 4 5 5 4 4
16 14 13 13 13 13 13 13 13 13 13 12 12 12 11 10 10 10 10 10 10 10 9 8 9 9 9 8 6 6 6 5 5 5 5 5 5 5 5 6 6 5 5 5
Wind_Direction
277 283 277 276 278 269 264 281 292 309 359 136 142 141 136 133 131 128 125 119 115 113 108 105 102 98 94 93 94 96 98 97 96 95 95 93 90 88 86 84 84 83 84 85
263 257 257 264 265 262 265 276 273 251 87 118 129 130 135 140 140 135 130 124 122 117 114 110 108 106 104 101 101 103 104 104 104 103 99 95 94 92 89 86 86 88 87 84
270 256 251 249 263 256 241 257 266 273 124 134 137 141 146 146 143 139 135 131 126 122 119 116 113 112 111 110 109 106 104 105 107 106 103 101 100 100 99 98 93 90 88 87
272 259 258 76 74 21 144 79 16 96 124 136 133 128 133 142 141 138 135 131 128 125 121 118 118 117 117 116 113 110 108 108 107 108 105 104 103 101 101 100 99 97 93 91
268 269 266 142 156 186 212 131 126 132 130 126 125 116 111 128 134 133 133 131 128 127 126 126 125 126 124 122 119 114 109 106 104 103 101 102 98 97 98 102 103 106 99 95
263 279 290 98 121 157 231 163 141 145 144 146 157 155 138 136 130 128 129 130 131 133 134 131 131 134 130 125 118 109 103 99 97 95 94 94 93 95 99 107 109 106 100 94
262 266 330 91 132 192 251 96 142 152 154 161 172 111 127 134 132 131 134 136 138 139 136 134 136 134 125 117 108 103 100 99 96 95 95 94 95 96 104 105 101 98 107 109
256 260 103 106 171 231 59 114 141 147 149 139 113 115 127 133 134 137 138 139 138 135 132 134 135 133 124 114 110 108 107 105 104 100 93 95 96 97 97 112 130 125 126 127
348 44 79 87 70 73 114 131 135 139 139 131 129 131 134 135 137 139 138 137 137 135 132 133 134 132 126 123 124 119 109 104 102 99 85 82 93 105 122 132 112 113 123 113
158 119 114 108 106 113 124 128 133 136 137 137 135 137 137 136 137 139 137 140 142 140 137 134 133 129 125 126 127 122 115 115 116 108 104 94 73 76 72 69 79 93 84 78
157 129 134 126 123 122 120 123 127 131 135 138 139 141 139 138 139 139 139 141 144 141 137 135 134 130 133 133 135 126 123 127 122 110 96 98 79 49 42 55 34 13 33 39
171 160 155 138 136 133 130 131 132 132 133 137 139 139 138 136 138 140 141 143 144 141 138 138 140 137 134 134 133 128 129 134 133 122 114 115 122 119 68 58 78 51 22 1
109 130 118 128 136 136 133 132 133 133 133 134 135 137 136 136 140 142 144 146 143 141 139 141 141 138 136 137 135 127 118 112 109 103 117 113 115 130 139 142 155 149 120 14
119 118 123 134 135 133 131 130 130 128 130 133 135 136 136 138 140 143 145 144 144 144 146 145 144 140 144 147 146 146 143 128 163 130 104 95 93 97 114 139 155 157 157 158
143 135 134 133 132 133 134 134 133 133 134 135 137 139 141 142 144 144 143 145 149 151 152 151 150 148 156 156 154 163 172 137 131 104 123 108 110 111 106 96 101 121 135 147
134 128 134 138 139 141 144 144 140 139 140 141 142 143 144 143 143 143 146 151 155 155 153 153 151 152 160 159 166 169 135 75 308 229 160 133 127 117 110 108 94 90 98 96
144 147 148 147 148 150 150 147 144 143 144 145 145 145 145 145 145 147 152 153 154 151 154 157 155 156 163 168 196 186 152 144 194 229 173 134 132 122 113 106 91 96 86 67
155 153 153 152 152 151 149 147 146 146 147 146 146 149 151 153 153 153 154 153 154 155 159 160 158 170 170 167 190 218 167 161 175 147 130 130 133 152 144 129 117 114 123 138
150 149 150 151 150 149 148 148 148 148 148 149 151 154 155 154 152 153 155 159 162 162 161 152 148 198 170 151 211 203 194 154 147 142 138 137 204 184 159 149 129 111 101 101
148 148 148 148 149 149 148 148 148 148 150 152 153 154 155 155 155 157 163 168 170 155 153 159 178 187 176 169 245 226 174 172 153 144 164 178 176 162 162 162 151 128 128 112
150 149 149 149 149 150 150 150 150 152 154 157 158 158 157 158 161 164 175 170 160 158 157 164 193 185 186 165 219 231 184 183 183 168 170 173 169 173 168 167 170 176 196 216
152 152 151 150 150 150 151 153 154 155 156 160 162 161 160 163 168 172 183 170 155 160 183 181 187 148 140 216 217 208 187 191 198 176 165 175 182 185 180 182 192 197 206 215
153 153 153 153 153 151 153 157 158 159 161 164 166 166 168 170 172 175 173 169 163 172 201 178 131 132 176 232 227 205 195 201 211 196 176 186 197 198 194 197 207 212 216 223
153 154 154 153 152 154 159 161 160 163 166 168 168 170 172 172 177 184 161 152 155 169 196 139 142 167 221 236 222 210 198 200 209 209 195 189 196 204 210 216 220 219 217 224
155 155 155 157 159 161 161 161 162 166 170 172 171 174 181 183 177 174 166 162 162 184 190 161 173 194 226 231 219 215 212 212 228 241 208 219 220 208 210 219 225 227 227 228
156 159 159 165 163 161 162 166 169 171 174 174 174 176 181 181 179 172 176 177 177 196 208 181 181 200 223 226 219 219 217 190 201 226 234 233 235 233 223 224 224 231 232 233
158 157 160 166 167 169 169 172 173 175 177 178 176 177 180 182 182 182 185 185 182 192 205 201 196 200 212 218 217 217 222 223 224 227 229 231 235 235 227 224 230 229 230 229